User: anonymous   Login
Location: Mana�l
(15.0115°N, 12.5022°W)
Time: 11:56:29
(UTC+00:00)
Language:

CZ-2C R/B - Orbit

View from above orbital plane
View from above orbital plane
View from above satellite
View from above satellite

Ground track
Ground track

The orbit data is extracted from the following two-line orbital elements,

1 36089U 09061B   20226.93275205 -.00000027 +00000-0 +44494-5 0  9997
2 36089 098.1586 198.7283 0083196 095.9314 323.6073 14.49833381568783
Epoch (UTC): 13 August 2020 22:23:09
Eccentricity: 0.0083196
inclination: 98.1586°
perigee height: 667 km
apogee height: 785 km
right ascension of ascending node: 198.7283°
argument of perigee: 95.9314°
revolutions per day: 14.49833381
mean anomaly at epoch: 323.6073°
orbit number at epoch: 56878

The dashed part of the orbit path shows where the satellite is in the earth's shadow,  

DLR